Wind_Speed
15 14 13 13 13 14 15 16 19 21 23 26 29 30 29 31 31 30 31 33 33 29
17 19 17 16 14 16 16 18 20 23 24 25 21 20 22 24 23 24 29 27 27 29
15 15 15 16 15 15 18 18 18 20 18 18 16 14 14 16 16 17 19 19 18 15
14 13 15 14 13 15 15 15 15 13 12 12 10 9 9 5 10 13 16 19 17 15
15 14 15 15 13 12 12 10 8 9 9 8 6 5 7 1 5 6 4 6 4 3
14 13 12 12 12 11 11 10 10 10 10 11 12 10 9 8 6 1 1 4 4 1
15 14 14 13 12 11 11 11 10 10 9 12 12 10 9 8 7 7 6 5 3 3
15 15 14 14 13 13 12 11 11 10 10 9 9 8 5 5 6 5 4 3 4 3
15 15 15 14 14 14 13 13 11 10 9 8 7 5 4 3 2 2 1 2 3 5
14 15 15 15 15 15 14 13 11 9 7 8 8 6 4 4 4 5 4 4 4 5
14 14 14 15 14 13 12 10 8 8 7 8 9 9 9 9 7 6 5 3 2 3
14 14 15 15 13 10 8 7 6 6 6 8 8 9 8 6 5 4 3 3 4 5
12 13 14 14 12 9 8 6 6 5 5 5 6 7 10 11 7 6 5 5 4 5
11 13 13 12 9 8 7 7 6 5 5 6 6 5 5 7 11 11 10 9 8 7
Wind_Direction
342 339 330 325 315 309 308 307 303 299 294 292 289 285 279 278 275 273 268 264 263 271
344 336 338 331 327 320 317 310 305 303 301 300 299 297 291 277 274 272 265 265 260 261
351 346 342 332 320 312 310 306 305 307 303 301 294 290 292 284 273 263 256 247 261 249
356 349 344 339 336 333 323 315 310 313 308 302 282 295 271 274 272 253 247 253 243 247
359 2 356 347 341 339 341 348 342 343 333 334 1 349 323 293 220 215 187 160 175 196
353 351 347 356 356 346 345 346 343 348 342 342 340 336 329 328 331 325 330 180 193 252
343 348 348 343 332 333 338 340 336 330 327 332 325 324 320 321 318 311 309 312 337 303
340 345 345 340 337 338 337 335 337 337 332 329 318 310 309 315 316 308 319 352 6 355
332 335 338 337 335 335 334 331 334 339 346 343 342 349 352 328 322 334 360 29 46 48
327 331 334 334 331 329 330 334 338 345 357 7 14 25 43 52 50 51 62 67 65 52
320 326 329 330 330 328 329 334 340 352 4 12 21 20 17 13 8 8 19 40 35 41
319 325 328 330 330 329 329 332 339 353 4 11 20 18 17 14 11 9 4 338 330 335
312 320 326 327 327 324 320 317 318 319 320 333 350 19 4 352 352 348 351 340 329 332
310 319 323 322 319 313 312 311 310 305 299 302 307 304 325 347 334 335 332 328 328 325
Height
1454 1451 1449 1447 1446 1446 1443 1442 1441 1439 1437 1436 1435 1433 1431 1430 1430 1430 1429 1429 1430 1431
1453 1452 1449 1448 1445 1444 1442 1440 1438 1436 1432 1430 1428 1426 1424 1423 1422 1422 1422 1421 1422 1424
1455 1452 1449 1446 1444 1441 1440 1437 1434 1433 1430 1428 1426 1423 1421 1418 1416 1416 1416 1417 1417 1416
1455 1451 1448 1445 1442 1439 1436 1434 1433 1431 1428 1426 1424 1421 1419 1415 1413 1413 1412 1411 1412 1412
1455 1452 1449 1446 1442 1439 1436 1433 1431 1429 1428 1426 1422 1420 1418 1414 1412 1411 1410 1408 1408 1408
1455 1451 1448 1446 1443 1438 1436 1433 1431 1429 1428 1426 1424 1421 1418 1416 1414 1411 1411 1406 1406 1408
1456 1452 1448 1446 1443 1440 1437 1434 1431 1428 1426 1425 1423 1421 1419 1417 1415 1412 1409 1409 1405 1407
1454 1451 1449 1446 1443 1440 1437 1435 1432 1429 1427 1424 1423 1420 1419 1417 1416 1413 1411 1409 1407 1408
1452 1449 1447 1445 1443 1440 1438 1435 1432 1430 1427 1424 1422 1420 1419 1418 1416 1414 1412 1410 1409 1409
1452 1449 1446 1443 1441 1439 1436 1435 1433 1430 1428 1426 1424 1421 1420 1419 1417 1415 1413 1413 1411 1410
1450 1447 1445 1442 1440 1437 1435 1433 1433 1432 1430 1428 1426 1424 1422 1420 1418 1416 1415 1414 1413 1412
1449 1446 1443 1441 1438 1436 1434 1433 1432 1431 1431 1430 1430 1428 1426 1423 1421 1419 1417 1416 1414 1412
1445 1443 1441 1439 1437 1436 1434 1433 1432 1430 1429 1428 1428 1429 1428 1425 1423 1420 1418 1416 1414 1412
1441 1440 1439 1437 1435 1433 1433 1432 1431 1430 1429 1428 1426 1424 1423 1424 1422 1419 1417 1415 1413 1411